Location: Crescent
(42.8242°N, 73.7329°W)
Time: 16:10:37
(UTC+00:00)

Transit 2A Rocket - All Passes

Search period start: 10 February 2026 00:00
Search period end: 20 February 2026 00:00
Orbit: 581 x 901 km, 66.7° (Epoch: 10 February)

Date Brightness Start Highest point End Pass type
(mag) Time Alt. Az. Time Alt. Az. Time Alt. Az.
10 Feb - 01:33:40 10° NW 01:35:49 12° NNW 01:37:58 10° N visible
10 Feb - 06:46:13 10° NNW 06:51:17 34° NE 06:55:58 10° ESE night (unlit)
10 Feb - 08:28:42 10° NW 08:33:44 38° WSW 08:38:20 10° S night (unlit)
10 Feb - 21:19:45 10° SSE 21:24:05 21° ESE 21:28:29 10° ENE daylight
10 Feb - 23:00:01 10° SW 23:05:59 69° WNW 23:12:00 10° NNE visible
11 Feb - 00:45:42 10° WNW 00:49:31 17° NW 00:53:18 10° N visible
11 Feb - 06:00:57 10° N 06:05:16 22° NE 06:09:19 10° E night (unlit)
11 Feb - 07:42:47 10° NW 07:48:18 71° WSW 07:53:16 10° SSE night (unlit)
11 Feb - 20:37:08 10° ESE 20:38:56 11° E 20:40:44 10° E daylight
11 Feb - 22:14:23 10° SSW 22:20:20 74° ESE 22:26:22 10° NE daylight
11 Feb - 23:58:29 10° W 00:03:21 25° NW 00:08:13 10° N visible
12 Feb - 05:15:56 10° N 05:19:04 15° NNE 05:22:04 10° ENE night (unlit)
12 Feb - 06:57:08 10° NNW 07:02:40 66° NE 07:07:40 10° SE night (unlit)
12 Feb - 08:40:57 10° WNW 08:44:21 17° WSW 08:47:34 10° SW night (unlit)
12 Feb - 21:29:15 10° S 21:34:50 43° ESE 21:40:30 10° NE daylight
12 Feb - 23:11:49 10° WSW 23:17:21 37° NW 23:22:54 10° NNE visible
13 Feb - 01:00:15 10° NW 01:01:33 11° NNW 01:02:50 10° NNW visible
13 Feb - 04:31:55 10° NNE 04:32:43 10° NNE 04:33:30 10° NE night (unlit)
13 Feb - 06:11:39 10° NNW 06:16:52 39° NE 06:21:37 10° ESE night (unlit)
13 Feb - 07:54:22 10° NW 07:59:08 32° WSW 08:03:30 10° S night (unlit)
13 Feb - 20:44:45 10° SSE 20:49:30 25° ESE 20:54:17 10° NE daylight
13 Feb - 22:25:36 10° SW 22:31:31 59° NW 22:37:28 10° NNE daylight
14 Feb - 00:11:47 10° WNW 00:15:12 15° NW 00:18:35 10° N visible
14 Feb - 05:26:20 10° NNW 05:30:52 25° NE 05:35:06 10° E night (unlit)
14 Feb - 07:08:21 10° NW 07:13:44 59° WSW 07:18:36 10° SSE night (unlit)
14 Feb - 20:01:22 10° SE 20:04:16 14° ESE 20:07:12 10° ENE daylight
14 Feb - 21:39:50 10° SSW 21:45:50 85° ESE 21:51:53 10° NNE daylight
14 Feb - 23:24:24 10° W 23:28:59 22° NW 23:33:33 10° N visible
15 Feb - 04:41:15 10° N 04:44:44 16° NE 04:48:02 10° ENE night (unlit)
15 Feb - 06:22:38 10° NNW 06:28:10 77° ENE 06:33:09 10° SE night (unlit)
15 Feb - 08:07:00 10° WNW 08:09:41 14° WSW 08:12:14 10° SW night (unlit)
15 Feb - 20:54:32 10° S 21:00:17 51° ESE 21:06:06 10° NE daylight
15 Feb - 22:37:34 10° WSW 22:42:56 33° NW 22:48:19 10° NNE daylight
16 Feb - 03:56:42 10° N 03:58:24 11° NNE 04:00:06 10° NE visible
16 Feb - 05:37:06 10° NNW 05:42:24 44° NE 05:47:14 10° SE night (unlit)
16 Feb - 07:20:04 10° NW 07:24:29 27° WSW 07:28:34 10° SSW night (unlit)
16 Feb - 20:09:49 10° SSE 20:14:53 29° ESE 20:20:00 10° NE daylight
16 Feb - 21:51:12 10° SW 21:57:04 51° NW 22:02:55 10° NNE daylight
16 Feb - 23:37:57 10° WNW 23:40:53 14° NNW 23:43:47 10° N visible
17 Feb - 04:51:45 10° NNW 04:56:28 28° NE 05:00:50 10° ESE night (unlit)
17 Feb - 06:33:56 10° NW 06:39:09 49° WSW 06:43:52 10° S night (unlit)
17 Feb - 19:25:59 10° SE 19:29:38 17° ESE 19:33:17 10° ENE daylight
17 Feb - 21:05:18 10° SSW 21:11:19 84° WNW 21:17:22 10° NNE daylight
17 Feb - 22:50:20 10° W 22:54:38 20° NW 22:58:53 10° N visible
18 Feb - 04:06:34 10° N 04:10:22 18° NE 04:13:56 10° E visible
18 Feb - 05:48:07 10° NNW 05:53:37 89° WSW 05:58:34 10° SSE night (unlit)
18 Feb - 07:33:27 10° W 07:34:58 11° W 07:36:28 10° WSW night (unlit)
18 Feb - 20:19:52 10° SSW 20:25:44 59° ESE 20:31:39 10° NE daylight
18 Feb - 22:03:21 10° WSW 22:08:32 29° NW 22:13:41 10° NNE daylight
19 Feb - 03:21:47 10° N 03:24:06 12° NNE 03:26:19 10° NE visible
19 Feb - 05:02:33 10° NNW 05:07:55 52° NE 05:12:47 10° SE night (unlit)
19 Feb - 06:45:49 10° WNW 06:49:50 22° WSW 06:53:34 10° SSW night (unlit)
19 Feb - 19:34:57 10° S 19:40:17 35° ESE 19:45:39 10° NE daylight
19 Feb - 21:16:51 10° SW 21:22:36 45° NW 21:28:20 10° NNE daylight
19 Feb - 23:04:13 10° NW 23:06:34 12° NNW 23:08:53 10° N visible
